[[{"header":{"parameterUnit":"m.s-1","parameterCategory":2,"la1":30.2991,"la2":30.254,"lo1":-89.0895,"lo2":-89.0444,"dy":0.0017,"dx":0.0017,"nx":28,"ny":28,"refTime":"2024-03-19T03:00:00:Z","depth":"0","parameterNumber":2,"parameterNumberName":"U-component_of_CURRENTS"},"data":[0,0,0,0,0,0,0,0,0,0,0,0,0,0,0,0,0,0,0,0,0,0,0,0,0,0,0,0,0,0,0,0,0,0,0,0,0,0,0,0,0,0,0,0,0,0,0,0,0,0,0,0,0,0,0,0,0,0,0.3484,0.3484,0,0.3511,0.3511,0.3512,0.3495,0.3495,0.3494,0.3494,0.3484,0.3485,0.3485,0,0,0,0,0,0,0,0,0,0,0,0,0,0.3453,0.3453,0.3484,0.3484,0.3485,0.3511,0.3512,0.3512,0.3496,0.3495,0.3494,0.3494,0.3484,0.3485,0.3485,0,0,0,0,0,0,0,0,0,0,0,0,0,0.347,0.3453,0.3484,0.3482,0.3482,0.3511,0.3512,0.3512,0.3496,0.3495,0.3494,0.3493,0.3484,0.3485,0.3485,0.3505,0,0,0.3486,0.3487,0,0,0,0,0,0,0,0,0.3469,0.347,0.3482,0.3482,0.3482,0.3501,0.3497,0.3508,0.3496,0.3488,0.3494,0.3493,0.3489,0.3489,0.3493,0.3504,0.3504,0.3486,0.3487,0.3487,0.3487,0,0,0,0,0,0,0,0.3467,0.3469,0.3492,0.3482,0.3483,0.3492,0.3493,0.3499,0.349,0.3489,0.3488,0.3495,0.3488,0.3493,0.3493,0.3504,0.3486,0.3487,0.3487,0.3487,0.3554,0.3556,0,0,0,0,0,0,0.3468,0.3468,0.3492,0.3493,0.3476,0.3493,0.3494,0.3494,0.3491,0.3491,0.3496,0.3494,0.3492,0.3492,0.3492,0.3535,0.3487,0.3487,0.3487,0.3553,0.3555,0.3556,0,0,0,0,0,0,0.3467,0.3469,0.3491,0.3484,0.3487,0.3494,0.3495,0.3495,0.3502,0.3497,0.3496,0.3503,0.3492,0.3492,0.3508,0.3534,0.3487,0.3488,0.3551,0.3553,0.3555,0.3609,0,0,0,0,0,0,0.3466,0.3469,0.347,0.3483,0.3488,0.3514,0.3496,0.3496,0.3509,0.3507,0.3503,0.3501,0.3491,0.3508,0.3509,0.3534,0.3488,0.3549,0.3552,0.3555,0.3605,0.3613,0.3619,0,0,0,0,0,0.3464,0.3472,0.347,0.3473,0.3488,0.3515,0.3518,0.3519,0.351,0.352,0.3519,0.3501,0.3527,0.3509,0.351,0.3536,0.3548,0.3551,0.3554,0.3602,0.3611,0.3619,0,0,0,0,0,0,0.3459,0.3472,0.3469,0.3479,0.3498,0.3513,0.3526,0.3525,0.3534,0.3531,0.3519,0.3518,0.3545,0.3536,0.3517,0.3565,0.3535,0.3539,0.3571,0.358,0.3587,0.3594,0.3489,0,0,0,0,0,0.3459,0.3467,0.3484,0.3493,0.3505,0.3516,0.3527,0.353,0.354,0.3543,0.3541,0.3545,0.3561,0.3565,0.3574,0.3598,0.3608,0.3617,0.3624,0.3629,0.3638,0.3685,0.3698,0.3568,0.3567,0.3567,0,0,0.346,0.3469,0.3473,0.3493,0.3507,0.3532,0.352,0.3543,0.3562,0.3541,0.3563,0.357,0.3574,0.3604,0.3615,0.3597,0.3672,0.3634,0.3639,0.3644,0.369,0.3703,0.3714,0.357,0.3569,0.3569,0,0,0.347,0.3476,0.3487,0.3509,0.3536,0.3547,0.3556,0.3577,0.3583,0.3608,0.3604,0.3628,0.364,0.3656,0.3664,0.3716,0.371,0.3719,0.3757,0.3803,0.3814,0.3824,0.3853,0.3865,0.3719,0.3719,0.3719,0,0.3471,0.3483,0.3497,0.3522,0.3544,0.3556,0.3583,0.3599,0.362,0.3642,0.362,0.3674,0.3668,0.3723,0.3736,0.3732,0.3753,0.3722,0.3812,0.3822,0.3831,0.3859,0.3871,0.3722,0.3721,0.3721,0.3721,0,0.3492,0.3507,0.3522,0.3553,0.3583,0.3607,0.3638,0.3666,0.3674,0.3693,0.3744,0.3745,0.3779,0.3782,0.377,0.384,0.3832,0.3818,0.379,0.3848,0.3872,0.3885,0.3726,0.3725,0.3724,0.3723,0,0,0.3465,0.3522,0.3524,0.3538,0.3599,0.3615,0.3676,0.3727,0.3762,0.3787,0.3835,0.3865,0.3872,0.3883,0.388,0.391,0.3981,0.3891,0.3892,0.3917,0.4081,0.4062,0.4073,0.3988,0.399,0.3992,0.4072,0,0.347,0.351,0.3547,0.3583,0.3606,0.366,0.3706,0.3761,0.3806,0.3856,0.3888,0.3924,0.3909,0.3921,0.396,0.3979,0.4016,0.396,0.4023,0.4025,0.3999,0.4088,0.3966,0.4027,0.4084,0.4086,0.4087,0,0.3464,0.3493,0.3533,0.3587,0.3602,0.3633,0.3718,0.3766,0.3866,0.3905,0.3978,0.3997,0.4063,0.4022,0.4112,0.4081,0.409,0.4096,0.4099,0.4072,0.4029,0.3979,0.4047,0.3948,0.4105,0.4104,0.4103,0,0.3411,0.3471,0.3496,0.3518,0.3594,0.3627,0.3675,0.3781,0.3835,0.3943,0.3995,0.4077,0.4114,0.4159,0.4186,0.4155,0.4272,0.4229,0.4225,0.4223,0.4127,0.4113,0.4103,0.4295,0.4295,0.4294,0.4294,0,0.3384,0.3395,0.3467,0.3475,0.3511,0.3585,0.3649,0.3721,0.3838,0.3909,0.4008,0.4081,0.4151,0.4222,0.4231,0.4285,0.432,0.4258,0.4257,0.4142,0.4128,0.4042,0.3985,0.4297,0.4297,0.4296,0.4296,0,0.331,0.3359,0.3383,0.3457,0.3483,0.3508,0.3626,0.3674,0.3801,0.3905,0.394,0.4103,0.4213,0.4276,0.4354,0.4343,0.4271,0.4384,0.424,0.4221,0.4104,0.4055,0.3912,0.38,0.4393,0.4393,0.4393,0,0.3269,0.3278,0.3351,0.3368,0.3398,0.346,0.3506,0.3641,0.3705,0.3915,0.3949,0.4112,0.4205,0.4345,0.4373,0.4415,0.4278,0.431,0.4228,0.4109,0.4053,0.3882,0.3785,0.4118,0.4116,0.4114,0.4113,0,0.3193,0.3223,0.3249,0.329,0.3327,0.3382,0.3457,0.3502,0.3664,0.3766,0.3903,0.4,0.4183,0.4207,0.43,0.4308,0.4114,0.4276,0.4191,0.3882,0.3656,0.3543,0.4045,0.4097,0.4099,0.41,0.4101,0.4101,0.3129,0.3131,0.3168,0.3193,0.3236,0.3267,0.3265,0.3364,0.3451,0.3554,0.376,0.3851,0.4017,0.4151,0.4129,0.4057,0.4017,0.3955,0.3921,0.377,0.3608,0.4081,0.4109,0.411,0.4111,0.4113,0.4114,0,0.3026,0.304,0.3066,0.3077,0.3063,0.3137,0.319,0.3166,0.3194,0.3369,0.3475,0.3649,0.371,0.3802,0.385,0.3729,0.3536,0.3631,0.3356,0.329,0.376,0.3696,0.3589,0.3589,0.3589,0.3589,0.3589,0.3589,0.2971,0.2944,0.2954,0.2889,0.2895,0.2833,0.283,0.2831,0.2908,0.2984,0.3074,0.3235,0.3491,0.3625,0.3548,0.3462,0.3188,0.3059,0.3027,0.3372,0.3398,0.3423,0.3351,0.3172,0.3172,0.2432,0.2426,0.2422]},{"header":{"parameterUnit":"m.s-1","parameterCategory":2,"la1":30.2991,"la2":30.254,"lo1":-89.0895,"lo2":-89.0444,"dy":0.0017,"dx":0.0017,"nx":28,"ny":28,"refTime":"2024-03-19T03:00:00:Z","depth":"0","parameterNumber":3,"parameterNumberName":"V-component_of_CURRENTS"},"data":[0,0,0,0,0,0,0,0,0,0,0,0,0,0,0,0,0,0,0,0,0,0,0,0,0,0,0,0,0,0,0,0,0,0,0,0,0,0,0,0,0,0,0,0,0,0,0,0,0,0,0,0,0,0,0,0,0,0,0.0035,0.0035,0,-0.0037,-0.0038,-0.0039,-0.0092,-0.0092,-0.0092,-0.0092,-0.018,-0.0182,-0.0184,0,0,0,0,0,0,0,0,0,0,0,0,0,0.0079,0.0079,0.0035,0.0035,0.0034,-0.0036,-0.0038,-0.0039,-0.0092,-0.0092,-0.0092,-0.0092,-0.018,-0.0182,-0.0185,0,0,0,0,0,0,0,0,0,0,0,0,0,0.0037,0.0079,0.0035,0.0001,-0.0003,-0.0036,-0.0038,-0.0039,-0.0092,-0.0092,-0.0092,-0.0093,-0.0179,-0.0182,-0.0185,-0.0197,0,0,-0.0195,-0.0196,0,0,0,0,0,0,0,0,0.004,0.0035,0.0007,0.0003,-0.0001,-0.0053,-0.0054,-0.0092,-0.0091,-0.006,-0.0092,-0.0093,-0.0138,-0.0144,-0.016,-0.0201,-0.0205,-0.0195,-0.0197,-0.0198,-0.0199,0,0,0,0,0,0,0,0.0043,0.0038,0.0004,0.0006,0.0001,-0.0027,-0.0033,-0.0062,-0.0098,-0.0063,-0.0067,-0.0071,-0.014,-0.0157,-0.0162,-0.0206,-0.0195,-0.0198,-0.02,-0.0201,-0.0248,-0.0247,0,0,0,0,0,0,0.0059,0.0041,0.0007,0.0003,0.0021,-0.0027,-0.0034,-0.0038,-0.0098,-0.0106,-0.007,-0.0073,-0.0151,-0.0159,-0.0166,-0.016,-0.0198,-0.0201,-0.0203,-0.0248,-0.0247,-0.0247,0,0,0,0,0,0,0.006,0.0057,0.001,0.0022,0.0014,-0.0027,-0.0031,-0.0039,-0.0051,-0.0102,-0.0112,-0.0072,-0.0152,-0.0161,-0.0181,-0.0164,-0.0202,-0.0205,-0.0249,-0.0248,-0.0247,-0.0163,0,0,0,0,0,0,0.0062,0.0058,0.0061,0.0023,0.0014,0.0002,-0.0031,-0.004,-0.0052,-0.0056,-0.0107,-0.0116,-0.0153,-0.0175,-0.0184,-0.0169,-0.0208,-0.025,-0.0249,-0.0247,-0.0166,-0.0159,-0.0153,0,0,0,0,0,0.0064,0.0075,0.0062,0.0058,0.0021,0.0003,-0.0004,-0.0037,-0.0051,-0.005,-0.0084,-0.0114,-0.0174,-0.0177,-0.0187,-0.0173,-0.025,-0.0249,-0.0247,-0.0169,-0.016,-0.0153,0,0,0,0,0,0,0.0093,0.0069,0.0055,0.0057,0.0037,-0.0005,-0.0006,-0.0027,-0.0054,-0.0056,-0.0107,-0.0118,-0.0131,-0.0162,-0.0165,-0.0184,-0.0217,-0.0217,-0.0154,-0.0146,-0.0139,-0.0116,-0.021,0,0,0,0,0,0.0104,0.0106,0.0076,0.0078,0.0072,0.0035,0.0024,0.0005,-0.0024,-0.0036,-0.0072,-0.0108,-0.0134,-0.0146,-0.0178,-0.0186,-0.0215,-0.0183,-0.0176,-0.017,-0.0158,-0.019,-0.0185,-0.0242,-0.0242,-0.0242,0,0,0.0115,0.0103,0.0103,0.0085,0.0065,0.007,0.0027,0.002,0.0026,-0.004,-0.0046,-0.0087,-0.0131,-0.0142,-0.015,-0.0164,-0.0169,-0.0169,-0.0163,-0.0154,-0.0188,-0.0182,-0.0177,-0.0241,-0.0241,-0.0241,0,0,0.0149,0.0131,0.0148,0.0136,0.0119,0.01,0.0104,0.007,0.0056,0.0044,0.0001,-0.0025,-0.0069,-0.0094,-0.0113,-0.0086,-0.0134,-0.0098,-0.0042,-0.0073,-0.0068,-0.0065,-0.0089,-0.0089,-0.0092,-0.0092,-0.0092,0,0.0165,0.0182,0.015,0.0163,0.0162,0.0121,0.0142,0.0124,0.0089,0.0087,0.0055,-0.0001,-0.0045,-0.0047,-0.0043,-0.007,-0.0094,-0.0068,-0.0063,-0.006,-0.0058,-0.0084,-0.0085,-0.0087,-0.0088,-0.0088,-0.0089,0,0.0209,0.0224,0.0233,0.0239,0.0233,0.0244,0.0219,0.0214,0.019,0.017,0.0154,0.0091,0.0061,0.0041,0.0003,0.0005,-0.002,-0.0052,-0.008,-0.0047,-0.0077,-0.0079,-0.0081,-0.0083,-0.0084,-0.0085,0,0,0.025,0.0264,0.027,0.0291,0.0276,0.0282,0.0292,0.0294,0.0318,0.0265,0.0282,0.022,0.0183,0.0159,0.0108,0.0079,0.0065,0.0027,0.0023,0.0009,0.0003,-0.001,-0.0014,0.0032,0.0033,0.0033,-0.0023,0,0.0299,0.0351,0.0338,0.0389,0.0415,0.0383,0.0402,0.0395,0.0379,0.0384,0.0319,0.0308,0.0231,0.0218,0.0177,0.0097,0.0064,0.0083,-0.0033,-0.0037,-0.0047,-0.0015,0.0026,-0.0019,-0.0025,-0.0025,-0.0026,0,0.0353,0.0383,0.0439,0.048,0.0488,0.0506,0.0535,0.0551,0.0541,0.0527,0.0497,0.0438,0.0391,0.0314,0.0199,0.0216,0.0119,0.0048,0.0043,0.0003,-0.0052,-0.0056,-0.0023,-0.0214,-0.0029,-0.0029,-0.0028,0,0.041,0.046,0.0512,0.052,0.055,0.0569,0.0591,0.0595,0.0634,0.0621,0.0635,0.0558,0.0535,0.0402,0.0245,0.0221,0.0117,0.0062,-0.004,-0.0042,-0.0044,-0.0046,-0.0201,-0.0022,-0.0022,-0.0022,-0.0021,0,0.0471,0.0516,0.0545,0.0571,0.0649,0.064,0.0723,0.0726,0.0757,0.0831,0.0718,0.0747,0.0555,0.0464,0.0296,0.0138,0.0153,-0.0017,-0.0053,-0.0013,-0.0012,-0.0209,-0.0309,-0.0024,-0.0023,-0.0023,-0.0022,0,0.0526,0.0541,0.0611,0.0656,0.0677,0.0735,0.0818,0.0884,0.0888,0.0977,0.0975,0.0902,0.0789,0.0584,0.0389,0.0227,-0.0039,-0.0009,0.0054,0.0027,-0.0255,-0.035,-0.053,-0.06,-0.013,-0.013,-0.0131,0,0.056,0.0599,0.0677,0.0729,0.0752,0.0838,0.0906,0.0948,0.103,0.1086,0.1139,0.1049,0.1026,0.0725,0.0427,0.0143,-0.0044,-0.0022,-0.007,-0.0254,-0.0387,-0.0465,-0.0516,-0.0041,-0.0041,-0.004,-0.004,0,0.0626,0.0649,0.0706,0.0814,0.0892,0.1002,0.1103,0.1186,0.1261,0.1332,0.1417,0.14,0.1124,0.0866,0.0464,0.0259,-0.0137,-0.0027,-0.0234,-0.0336,-0.0414,-0.0502,-0.0027,-0.0038,-0.0038,-0.0038,-0.0038,-0.0039,0.0674,0.073,0.0804,0.091,0.1011,0.1149,0.1255,0.1378,0.1527,0.1667,0.1646,0.1679,0.1283,0.0748,0.0426,-0.0126,-0.0144,-0.0299,-0.0399,-0.0463,-0.053,-0.0047,-0.0092,-0.0092,-0.0093,-0.0093,-0.0093,0,0.0736,0.0797,0.0897,0.1027,0.1151,0.1193,0.1378,0.1498,0.1689,0.1847,0.1938,0.1799,0.1286,0.0751,-0.0001,-0.0419,-0.0562,-0.065,-0.0759,-0.0795,-0.0375,-0.0372,-0.0458,-0.0458,-0.0458,-0.0458,-0.0458,-0.0458,0.0769,0.0868,0.0919,0.112,0.1219,0.14,0.1513,0.1693,0.1849,0.2059,0.2133,0.2154,0.1745,0.0363,-0.059,-0.0808,-0.1083,-0.1148,-0.1309,-0.104,-0.1015,-0.0992,-0.1015,-0.1235,-0.1236,-0.1661,-0.1665,-0.1668]}],[{"header":{"parameterUnit":"m.s-1","parameterCategory":2,"la1":30.2991,"la2":30.254,"lo1":-89.0895,"lo2":-89.0444,"dy":0.0017,"dx":0.0017,"nx":28,"ny":28,"refTime":"2024-03-19T03:00:00:Z","depth":"2","parameterNumber":2,"parameterNumberName":"U-component_of_CURRENTS"},"data":[0,0,0,0,0,0,0,0,0,0,0,0,0,0,0,0,0,0,0,0,0,0,0,0,0,0,0,0,0,0,0,0,0,0,0,0,0,0,0,0,0,0,0,0,0,0,0,0,0,0,0,0,0,0,0,0,0,0,0.2836,0.2836,0,0.2869,0.2869,0.2869,0.2871,0.2871,0.2871,0.2871,0.2882,0.2883,0.2883,0,0,0,0,0,0,0,0,0,0,0,0,0,0.2795,0.2795,0.2836,0.2837,0.2837,0.2869,0.2869,0.2869,0.2871,0.2871,0.2871,0.287,0.2882,0.2883,0.2883,0,0,0,0,0,0,0,0,0,0,0,0,0,0.2816,0.2795,0.2836,0.2844,0.2845,0.2869,0.2869,0.2869,0.2871,0.2871,0.2871,0.287,0.2882,0.2883,0.2883,0.2893,0,0,0.2885,0.2886,0,0,0,0,0,0,0,0,0.2815,0.2818,0.2842,0.2843,0.2844,0.2868,0.2859,0.2877,0.2871,0.2859,0.2871,0.287,0.2877,0.2878,0.2882,0.2893,0.2894,0.2885,0.2886,0.2886,0.2886,0,0,0,0,0,0,0,0.2814,0.2816,0.2847,0.2843,0.2844,0.2853,0.2855,0.2862,0.2867,0.286,0.286,0.2868,0.2877,0.2881,0.2882,0.2894,0.2885,0.2886,0.2887,0.2887,0.2963,0.2965,0,0,0,0,0,0,0.2814,0.2815,0.2846,0.2848,0.2832,0.2854,0.2856,0.2859,0.2867,0.2869,0.2868,0.2868,0.288,0.2881,0.2883,0.2935,0.2886,0.2887,0.2887,0.2962,0.2964,0.2965,0,0,0,0,0,0,0.2812,0.2816,0.2844,0.2834,0.2839,0.2855,0.2857,0.2859,0.2874,0.2874,0.2875,0.2883,0.288,0.2882,0.2905,0.2934,0.2887,0.2888,0.296,0.2962,0.2965,0.3014,0,0,0,0,0,0,0.2811,0.2815,0.2821,0.2834,0.2839,0.2868,0.2858,0.286,0.288,0.288,0.2887,0.2887,0.288,0.2904,0.2906,0.2934,0.2888,0.2958,0.2961,0.2964,0.3011,0.3018,0.3025,0,0,0,0,0,0.2809,0.2818,0.2821,0.2825,0.2846,0.2869,0.2872,0.2881,0.2881,0.2893,0.29,0.2887,0.2924,0.2906,0.2907,0.2937,0.2956,0.296,0.2964,0.3008,0.3017,0.3024,0,0,0,0,0,0,0.2803,0.282,0.2823,0.2836,0.2856,0.287,0.2886,0.2891,0.2906,0.2909,0.2904,0.2905,0.294,0.2933,0.2912,0.297,0.294,0.2944,0.2973,0.2982,0.2989,0.2997,0.2889,0,0,0,0,0,0.2805,0.2817,0.2835,0.2848,0.286,0.2875,0.2888,0.2896,0.291,0.2917,0.2923,0.2935,0.2955,0.2963,0.2976,0.3003,0.3012,0.3025,0.3032,0.3038,0.3048,0.3094,0.3106,0.2977,0.2977,0.2977,0,0,0.2806,0.2818,0.2825,0.2848,0.2864,0.2887,0.2882,0.2909,0.2929,0.2916,0.2948,0.296,0.2969,0.3003,0.3018,0.3,0.308,0.3043,0.3048,0.3054,0.31,0.3112,0.3123,0.298,0.2979,0.2979,0,0,0.2815,0.2828,0.2842,0.2863,0.2893,0.2905,0.2916,0.294,0.2954,0.2985,0.2988,0.3018,0.3039,0.3056,0.3066,0.312,0.3118,0.3128,0.3166,0.3212,0.3223,0.3233,0.3259,0.327,0.3128,0.3128,0.3128,0,0.2818,0.2833,0.2851,0.2874,0.2897,0.2915,0.2941,0.296,0.2989,0.3014,0.3002,0.3067,0.3066,0.3122,0.3139,0.3136,0.3158,0.3131,0.3221,0.3231,0.324,0.3264,0.3276,0.3131,0.3131,0.313,0.313,0,0.2835,0.2854,0.2869,0.2902,0.2932,0.2957,0.299,0.3022,0.3042,0.3064,0.3125,0.3134,0.3176,0.3182,0.3174,0.3246,0.3239,0.3226,0.3197,0.3256,0.3278,0.3289,0.3135,0.3134,0.3133,0.3133,0,0,0.2813,0.2868,0.2872,0.2889,0.2948,0.2965,0.3026,0.3078,0.3117,0.3152,0.3207,0.3246,0.3263,0.3277,0.328,0.3311,0.3384,0.3299,0.33,0.3321,0.3483,0.3441,0.345,0.3393,0.3395,0.3397,0.3471,0,0.2817,0.2854,0.2891,0.293,0.2951,0.3006,0.3053,0.311,0.316,0.3217,0.3258,0.3305,0.3296,0.3319,0.3358,0.3382,0.3419,0.3365,0.3427,0.3428,0.3381,0.3463,0.3185,0.3225,0.3482,0.3484,0.3486,0,0.2813,0.2839,0.2878,0.2936,0.2952,0.2987,0.3076,0.3122,0.3223,0.3267,0.3346,0.3376,0.3449,0.3416,0.3509,0.348,0.3492,0.3499,0.3502,0.3455,0.341,0.321,0.3237,0.3505,0.3504,0.3502,0.3501,0,0.2765,0.2823,0.285,0.2872,0.2947,0.2988,0.3038,0.3142,0.3197,0.331,0.3367,0.3454,0.3505,0.3549,0.3583,0.3556,0.3669,0.3629,0.3603,0.3599,0.337,0.3342,0.3693,0.3693,0.3693,0.3693,0.3692,0,0.2741,0.2758,0.2828,0.2839,0.2881,0.2955,0.3024,0.3097,0.3214,0.3284,0.3387,0.3464,0.3544,0.3616,0.3625,0.3667,0.3713,0.3633,0.3629,0.3379,0.3353,0.3596,0.3584,0.3695,0.3695,0.3694,0.3694,0,0.2679,0.2725,0.2752,0.283,0.2858,0.289,0.301,0.3061,0.3187,0.329,0.3331,0.3497,0.3602,0.3664,0.3741,0.3721,0.3752,0.3746,0.3446,0.3406,0.3635,0.3625,0.3728,0.3728,0.3727,0.3727,0.3726,0,0.2648,0.2657,0.2729,0.2747,0.2784,0.2851,0.2899,0.3033,0.3096,0.3302,0.3341,0.3503,0.3581,0.3703,0.3701,0.3723,0.3773,0.3472,0.337,0.366,0.3646,0.3636,0.3627,0.3077,0.3072,0.3067,0.3064,0,0.2585,0.2616,0.2641,0.268,0.2724,0.2772,0.2855,0.2899,0.3055,0.3157,0.3289,0.3374,0.3518,0.3441,0.3501,0.3472,0.3447,0.3382,0.3772,0.3124,0.3056,0.3039,0.3049,0.3023,0.3027,0.303,0.3032,0.3034,0.2536,0.2536,0.2571,0.2596,0.2641,0.2664,0.2663,0.2761,0.2841,0.294,0.3122,0.3156,0.3226,0.3186,0.3106,0.3052,0.3287,0.3127,0.3137,0.3152,0.3077,0.3013,0.2956,0.2959,0.2962,0.2965,0.2967,0,0.245,0.2461,0.2482,0.2492,0.248,0.2553,0.2599,0.2571,0.2598,0.2732,0.2817,0.2658,0.2641,0.2695,0.2558,0.2582,0.2503,0.247,0.2333,0.2379,0.2419,0.23,0.1976,0.1972,0.1969,0.1965,0,0,0.2404,0.2376,0.2379,0.2317,0.2328,0.2272,0.2265,0.2257,0.2301,0.2298,0.2306,0.2526,0.263,0.2267,0.2242,0.2073,0.2191,0.199,0.2798,0.2684,0.2718,0.283,0.2704,0,0,0,0,0]},{"header":{"parameterUnit":"m.s-1","parameterCategory":2,"la1":30.2991,"la2":30.254,"lo1":-89.0895,"lo2":-89.0444,"dy":0.0017,"dx":0.0017,"nx":28,"ny":28,"refTime":"2024-03-19T03:00:00:Z","depth":"2","parameterNumber":3,"parameterNumberName":"V-component_of_CURRENTS"},"data":[0,0,0,0,0,0,0,0,0,0,0,0,0,0,0,0,0,0,0,0,0,0,0,0,0,0,0,0,0,0,0,0,0,0,0,0,0,0,0,0,0,0,0,0,0,0,0,0,0,0,0,0,0,0,0,0,0,0,0.0158,0.0157,0,0.0097,0.0097,0.0096,0.005,0.005,0.0049,0.0049,-0.0025,-0.0027,-0.0029,0,0,0,0,0,0,0,0,0,0,0,0,0,0.0192,0.0192,0.0158,0.0157,0.0157,0.0098,0.0097,0.0096,0.005,0.005,0.0049,0.0049,-0.0025,-0.0027,-0.0029,0,0,0,0,0,0,0,0,0,0,0,0,0,0.0158,0.0192,0.0158,0.0128,0.0125,0.0098,0.0097,0.0095,0.005,0.005,0.0049,0.0049,-0.0024,-0.0027,-0.0029,-0.0038,0,0,-0.0037,-0.0038,0,0,0,0,0,0,0,0,0.016,0.0156,0.0133,0.013,0.0127,0.0082,0.0081,0.0051,0.005,0.0077,0.0049,0.0049,0.0011,0.0005,-0.0008,-0.0041,-0.0045,-0.0038,-0.0039,-0.004,-0.0041,0,0,0,0,0,0,0,0.0162,0.0158,0.0132,0.0133,0.0129,0.0104,0.0099,0.0075,0.0045,0.0074,0.0071,0.0068,0.0009,-0.0005,-0.001,-0.0046,-0.0037,-0.004,-0.0041,-0.0042,-0.0086,-0.0085,0,0,0,0,0,0,0.0176,0.0161,0.0134,0.013,0.0145,0.0104,0.0098,0.0096,0.0045,0.0038,0.0068,0.0066,-0.0,-0.0007,-0.0012,-0.0009,-0.004,-0.0043,-0.0044,-0.0086,-0.0086,-0.0085,0,0,0,0,0,0,0.0177,0.0174,0.0137,0.0146,0.0139,0.0104,0.0101,0.0095,0.0084,0.0041,0.0033,0.0065,-0.0001,-0.0009,-0.0025,-0.0013,-0.0044,-0.0046,-0.0087,-0.0086,-0.0085,-0.0013,0,0,0,0,0,0,0.0178,0.0175,0.0178,0.0147,0.0139,0.0129,0.0102,0.0094,0.0083,0.008,0.0036,0.0029,-0.0002,-0.0021,-0.0027,-0.0017,-0.0048,-0.0087,-0.0086,-0.0086,-0.0016,-0.001,-0.0004,0,0,0,0,0,0.018,0.0189,0.0179,0.0176,0.0145,0.013,0.0124,0.0096,0.0084,0.0084,0.0056,0.003,-0.0021,-0.0022,-0.003,-0.002,-0.0088,-0.0087,-0.0086,-0.0018,-0.0011,-0.0005,0,0,0,0,0,0,0.0204,0.0185,0.0173,0.0175,0.0158,0.0123,0.0122,0.0104,0.0081,0.008,0.0037,0.0027,0.0016,-0.0011,-0.0012,-0.0031,-0.0059,-0.006,-0.0005,0.0002,0.0007,0.0025,-0.005,0,0,0,0,0,0.0213,0.0216,0.0191,0.0193,0.0188,0.0156,0.0147,0.0131,0.0107,0.0096,0.0065,0.0035,0.0013,0.0001,-0.0025,-0.0033,-0.0065,-0.0033,-0.0027,-0.0022,-0.0014,-0.0052,-0.0048,-0.0082,-0.0082,-0.0082,0,0,0.0222,0.0213,0.0214,0.0199,0.0182,0.0187,0.0149,0.0144,0.0148,0.0093,0.0087,0.0053,0.0015,0.0005,-0.0002,-0.0015,-0.003,-0.0021,-0.0017,-0.0011,-0.005,-0.0047,-0.0044,-0.0081,-0.0082,-0.0082,0,0,0.0251,0.0236,0.0252,0.0242,0.0228,0.0212,0.0215,0.0186,0.0173,0.0163,0.0127,0.0102,0.0066,0.0041,0.0025,0.0045,0.0001,0.0037,0.008,0.0044,0.0047,0.0048,0.0014,0.0012,0.004,0.0041,0.0041,0,0.0264,0.028,0.0254,0.0266,0.0266,0.023,0.0248,0.0232,0.0201,0.0198,0.0172,0.0122,0.0083,0.0078,0.008,0.0058,0.0032,0.006,0.0052,0.0053,0.0054,0.0018,0.0015,0.0044,0.0044,0.0043,0.0043,0,0.0303,0.0317,0.0325,0.0331,0.0327,0.0336,0.0315,0.0309,0.0288,0.0269,0.0252,0.0196,0.0168,0.0149,0.0119,0.0111,0.0089,0.0064,0.0038,0.0062,0.0022,0.0018,0.0049,0.0048,0.0047,0.0046,0,0,0.0336,0.0351,0.0356,0.0377,0.0364,0.0371,0.0378,0.0378,0.0394,0.0348,0.0357,0.0302,0.0267,0.0246,0.0202,0.0166,0.0139,0.0123,0.012,0.0096,0.0063,0.0045,0.0038,0.0114,0.0114,0.0114,0.0034,0,0.0378,0.0424,0.0415,0.0462,0.0486,0.0458,0.0474,0.0466,0.0447,0.0445,0.0384,0.0371,0.0308,0.0296,0.0251,0.0172,0.0131,0.0163,0.0038,0.0035,0.0021,0.0034,0.0068,0.0,0.003,0.0029,0.0028,0,0.0424,0.0451,0.0502,0.0543,0.055,0.0568,0.0589,0.0602,0.0583,0.0567,0.0534,0.0481,0.0428,0.0366,0.0243,0.0269,0.0174,0.0103,0.0097,0.0054,0.0009,-0.002,-0.0009,0.002,0.0021,0.0022,0.0022,0,0.0472,0.0519,0.0566,0.0574,0.0604,0.0623,0.0642,0.0638,0.0669,0.0646,0.0653,0.0575,0.0547,0.042,0.0268,0.0255,0.0129,0.0088,-0.0019,-0.0022,-0.0031,-0.0033,-0.0005,-0.0005,-0.0005,-0.0005,-0.0005,0,0.0524,0.0565,0.0595,0.062,0.069,0.0686,0.0754,0.0755,0.0773,0.0828,0.0725,0.0739,0.0559,0.0462,0.0305,0.0141,0.0154,-0.0007,-0.0041,-0.0004,-0.0004,-0.0018,-0.0018,-0.0008,-0.0007,-0.0007,-0.0006,0,0.0571,0.0585,0.0651,0.0695,0.0715,0.0768,0.0841,0.0895,0.0891,0.0954,0.0951,0.087,0.0743,0.055,0.035,0.0205,0.0035,-0.0031,0.0026,-0.0,-0.0105,-0.01,-0.0162,-0.0163,-0.0164,-0.0165,-0.0166,0,0.0599,0.0636,0.0709,0.0757,0.0779,0.0857,0.0919,0.0954,0.102,0.1043,0.1084,0.0977,0.0926,0.0621,0.0347,0.0075,0.0033,-0.0079,-0.0109,-0.0092,-0.012,-0.0114,-0.0108,-0.0095,-0.0096,-0.0096,-0.0096,0,0.0657,0.0679,0.0731,0.0829,0.0903,0.1002,0.1091,0.1161,0.1216,0.1258,0.13,0.1255,0.0974,0.0705,0.0328,0.0149,-0.0035,-0.009,-0.0084,-0.0057,-0.0035,-0.006,-0.0056,-0.0096,-0.0096,-0.0096,-0.0096,-0.0096,0.0698,0.0748,0.0816,0.0912,0.1007,0.113,0.1219,0.1318,0.143,0.1508,0.1465,0.1403,0.1101,0.0619,0.0292,-0.005,-0.0037,-0.016,-0.0158,-0.0156,-0.0129,-0.011,-0.0181,-0.0181,-0.0181,-0.0182,-0.0182,0,0.0751,0.0806,0.0895,0.1012,0.1125,0.1168,0.1326,0.1415,0.1551,0.1621,0.1649,0.1355,0.1037,0.0673,0.0164,-0.0136,-0.0149,-0.0229,-0.0186,-0.0182,-0.018,-0.0154,-0.0213,-0.0214,-0.0215,-0.0216,0,0,0.0779,0.0866,0.091,0.1088,0.1178,0.1338,0.1434,0.1558,0.1641,0.1706,0.1678,0.1608,0.1155,0.078,0.037,0.0069,0.0019,0.0022,0.0084,0.0189,0.0195,-0.01,-0.0051,0,0,0,0,0]}],[{"header":{"parameterUnit":"m.s-1","parameterCategory":2,"la1":30.2991,"la2":30.254,"lo1":-89.0895,"lo2":-89.0444,"dy":0.0017,"dx":0.0017,"nx":28,"ny":28,"refTime":"2024-03-19T03:00:00:Z","depth":"4","parameterNumber":2,"parameterNumberName":"U-component_of_CURRENTS"},"data":[0,0,0,0,0,0,0,0,0,0,0,0,0,0,0,0,0,0,0,0,0,0,0,0,0,0,0,0,0,0,0,0,0,0,0,0,0,0,0,0,0,0,0,0,0,0,0,0,0,0,0,0,0,0,0,0,0,0,0.182,0.1821,0,0.1888,0.1889,0.189,0.1949,0.195,0.1951,0.1952,0.2032,0.2033,0.2035,0,0,0,0,0,0,0,0,0,0,0,0,0,0.1741,0.1742,0.182,0.1821,0.1822,0.1888,0.1889,0.189,0.1949,0.195,0.1951,0.1952,0.2032,0.2033,0.2035,0,0,0,0,0,0,0,0,0,0,0,0,0,0.1787,0.1742,0.182,0.1861,0.1866,0.1888,0.1889,0.189,0.1949,0.195,0.1951,0.1953,0.2031,0.2033,0.2035,0.2022,0,0,0.2041,0.2042,0,0,0,0,0,0,0,0,0.1784,0.179,0.1854,0.1858,0.1863,0.1913,0.1891,0.1936,0.1948,0.1915,0.1952,0.1953,0.1994,0.1999,0.2006,0.2026,0.203,0.2042,0.2043,0.2044,0.2044,0,0,0,0,0,0,0,0.1781,0.1787,0.1845,0.1855,0.1861,0.1876,0.1884,0.1899,0.1945,0.1918,0.1923,0.1933,0.1996,0.2004,0.2009,0.2031,0.2042,0.2043,0.2045,0.2045,0.2167,0.2169,0,0,0,0,0,0,0.1775,0.1784,0.1843,0.1848,0.1828,0.1877,0.1885,0.1894,0.1945,0.1954,0.1932,0.1936,0.2,0.2006,0.2012,0.2106,0.2044,0.2046,0.2047,0.2165,0.2168,0.217,0,0,0,0,0,0,0.1773,0.1779,0.1841,0.1819,0.1828,0.1877,0.1887,0.1895,0.1944,0.1956,0.1965,0.1977,0.2001,0.2009,0.2063,0.2105,0.2046,0.2048,0.2163,0.2166,0.2169,0.2226,0,0,0,0,0,0,0.177,0.1778,0.1802,0.1818,0.1829,0.1879,0.1886,0.1896,0.1946,0.1953,0.1996,0.2003,0.2003,0.206,0.2065,0.2107,0.205,0.216,0.2164,0.2168,0.2221,0.223,0.2238,0,0,0,0,0,0.1767,0.1787,0.1803,0.1811,0.1854,0.188,0.1887,0.1924,0.1948,0.1972,0.2008,0.2004,0.2088,0.2064,0.2069,0.2112,0.2158,0.2163,0.2168,0.2218,0.2229,0.2238,0,0,0,0,0,0,0.1767,0.1795,0.1813,0.1843,0.1873,0.1891,0.1925,0.1946,0.1992,0.2014,0.2024,0.2033,0.2098,0.2098,0.207,0.216,0.2125,0.2131,0.2161,0.2172,0.218,0.2182,0.2052,0,0,0,0,0,0.1776,0.1803,0.1827,0.1857,0.1875,0.1908,0.1932,0.1957,0.199,0.2014,0.2044,0.208,0.2113,0.2138,0.2163,0.2207,0.2212,0.2242,0.225,0.2257,0.2264,0.2312,0.2325,0.2185,0.2185,0.2185,0,0,0.1785,0.1806,0.1824,0.1861,0.189,0.1919,0.1927,0.1975,0.201,0.2014,0.2085,0.2113,0.2133,0.2187,0.2216,0.2197,0.23,0.2263,0.2268,0.2272,0.2318,0.2331,0.2343,0.2188,0.2187,0.2187,0,0,0.1802,0.1838,0.1863,0.189,0.194,0.1956,0.1979,0.2021,0.2058,0.2115,0.2134,0.2188,0.2237,0.226,0.2275,0.2345,0.2344,0.2364,0.2407,0.2453,0.2465,0.2475,0.2496,0.2507,0.2366,0.2366,0.2366,0,0.1818,0.1846,0.1876,0.1906,0.1937,0.1977,0.2011,0.2046,0.2105,0.2143,0.2151,0.2252,0.2268,0.2334,0.2361,0.2364,0.2385,0.2364,0.2464,0.2474,0.2483,0.2502,0.2514,0.237,0.2369,0.2369,0.2369,0,0.1838,0.1879,0.1899,0.1949,0.1987,0.2025,0.2071,0.2126,0.2176,0.221,0.2303,0.2331,0.2394,0.2409,0.2407,0.249,0.248,0.2468,0.2434,0.2501,0.2516,0.2527,0.2374,0.2373,0.2372,0.2371,0,0,0.1821,0.1898,0.191,0.194,0.2016,0.204,0.2118,0.2185,0.2244,0.2311,0.2386,0.245,0.2484,0.2505,0.2519,0.2555,0.2634,0.2548,0.2549,0.2561,0.2732,0.2565,0.2561,0.2648,0.2651,0.2653,0.2714,0,0.1832,0.1885,0.193,0.1993,0.2022,0.2094,0.2154,0.2229,0.2302,0.2382,0.2441,0.2515,0.2515,0.2559,0.2601,0.2632,0.2669,0.2618,0.2672,0.2673,0.2511,0.2571,0.2661,0.2722,0.2725,0.2726,0.2728,0,0.1828,0.1866,0.1929,0.2011,0.2034,0.2088,0.2202,0.2263,0.2383,0.2444,0.2541,0.2589,0.2676,0.2655,0.2752,0.2727,0.2742,0.275,0.2753,0.2584,0.2528,0.2644,0.2748,0.2747,0.2745,0.2744,0.2743,0,0.1776,0.1862,0.1914,0.1943,0.2044,0.2106,0.2173,0.2295,0.2363,0.25,0.2568,0.2671,0.2739,0.2786,0.2825,0.2806,0.2907,0.2876,0.2737,0.2725,0.2831,0.2819,0.2939,0.2939,0.2939,0.2939,0.2939,0,0.1745,0.1789,0.1901,0.1926,0.1999,0.2088,0.2188,0.2273,0.2407,0.2483,0.2605,0.2675,0.2781,0.285,0.2861,0.2835,0.2945,0.2752,0.2734,0.2853,0.2843,0.2838,0.2826,0.2941,0.294,0.294,0.294,0,0.1677,0.1751,0.1812,0.1932,0.1978,0.2036,0.219,0.2252,0.2396,0.2505,0.2556,0.2714,0.2796,0.2867,0.2941,0.2864,0.286,0.2822,0.2947,0.2935,0.2636,0.2626,0.2662,0.2657,0.2652,0.2648,0.2645,0,0.1641,0.1669,0.1803,0.1846,0.1911,0.2014,0.208,0.2233,0.2298,0.2503,0.2534,0.2684,0.2763,0.2729,0.2822,0.2825,0.2793,0.2764,0.2689,0.2631,0.2611,0.2608,0.2604,0.2638,0.2637,0.2636,0.2635,0,0.157,0.164,0.1692,0.1778,0.1859,0.1926,0.2035,0.2067,0.2233,0.2388,0.2445,0.2492,0.2578,0.2623,0.2646,0.2646,0.2764,0.2716,0.2724,0.2654,0.2602,0.2587,0.2588,0.2619,0.2621,0.2623,0.2624,0,0.1527,0.1544,0.1625,0.1686,0.1775,0.1803,0.1877,0.1943,0.2022,0.2233,0.2252,0.2407,0.255,0.2533,0.2561,0.2543,0.2499,0.2399,0.2423,0.2441,0.234,0.2241,0.2138,0,0,0,0,0,0.1466,0.1469,0.152,0.1569,0.1651,0.1701,0.1823,0.1899,0.206,0.2038,0.2133,0.2199,0.2247,0.2337,0.2273,0.2474,0.2513,0.2389,0.2411,0.2533,0.2551,0.2453,0,0,0,0,0,0,0.1422,0.1466,0.1476,0.1457,0.1469,0.1537,0.1608,0.1721,0.1712,0.1888,0.1925,0.206,0.2142,0.2254,0.2229,0.2253,0.222,0.2489,0.2483,0.2523,0.2539,0.2554,0.2459,0,0,0,0,0]},{"header":{"parameterUnit":"m.s-1","parameterCategory":2,"la1":30.2991,"la2":30.254,"lo1":-89.0895,"lo2":-89.0444,"dy":0.0017,"dx":0.0017,"nx":28,"ny":28,"refTime":"2024-03-19T03:00:00:Z","depth":"4","parameterNumber":3,"parameterNumberName":"V-component_of_CURRENTS"},"data":[0,0,0,0,0,0,0,0,0,0,0,0,0,0,0,0,0,0,0,0,0,0,0,0,0,0,0,0,0,0,0,0,0,0,0,0,0,0,0,0,0,0,0,0,0,0,0,0,0,0,0,0,0,0,0,0,0,0,0.0163,0.0163,0,0.0127,0.0127,0.0126,0.0099,0.0099,0.0099,0.0099,0.005,0.0049,0.0047,0,0,0,0,0,0,0,0,0,0,0,0,0,0.0179,0.0179,0.0163,0.0163,0.0163,0.0128,0.0127,0.0126,0.0099,0.0099,0.0099,0.0099,0.005,0.0049,0.0047,0,0,0,0,0,0,0,0,0,0,0,0,0,0.016,0.0179,0.0163,0.0146,0.0144,0.0128,0.0127,0.0126,0.0099,0.0099,0.0099,0.0099,0.0051,0.0049,0.0047,0.004,0,0,0.0042,0.0041,0,0,0,0,0,0,0,0,0.0161,0.0159,0.0149,0.0147,0.0145,0.0119,0.0115,0.0097,0.0099,0.0115,0.0099,0.0099,0.0073,0.0069,0.0061,0.0038,0.0035,0.0041,0.004,0.004,0.0039,0,0,0,0,0,0,0,0.0162,0.016,0.0148,0.0149,0.0146,0.013,0.0127,0.0111,0.0094,0.0113,0.0112,0.011,0.0071,0.0063,0.006,0.0035,0.0042,0.004,0.0039,0.0038,0.0006,0.0006,0,0,0,0,0,0,0.0171,0.0162,0.0149,0.0147,0.0154,0.013,0.0127,0.0126,0.0094,0.009,0.011,0.0109,0.0066,0.0062,0.0058,0.0062,0.004,0.0038,0.0037,0.0005,0.0006,0.0006,0,0,0,0,0,0,0.0172,0.017,0.015,0.0154,0.0151,0.013,0.013,0.0126,0.0121,0.0092,0.0087,0.0111,0.0066,0.006,0.0051,0.006,0.0037,0.0036,0.0005,0.0006,0.0006,0.0062,0,0,0,0,0,0,0.0172,0.0171,0.0176,0.0155,0.0151,0.0147,0.013,0.0125,0.0121,0.0119,0.0091,0.0086,0.0065,0.0054,0.0049,0.0057,0.0034,0.0005,0.0005,0.0006,0.006,0.0064,0.0068,0,0,0,0,0,0.0173,0.0181,0.0176,0.0175,0.0158,0.0148,0.0144,0.0127,0.0121,0.0122,0.0106,0.0087,0.0053,0.0053,0.0047,0.0055,0.0005,0.0005,0.0006,0.0058,0.0063,0.0068,0,0,0,0,0,0,0.0188,0.0178,0.0173,0.0177,0.0166,0.0144,0.0144,0.0133,0.012,0.0121,0.0092,0.0086,0.008,0.0059,0.006,0.0045,0.0025,0.0024,0.0066,0.0071,0.0075,0.0086,0.0033,0,0,0,0,0,0.0195,0.0201,0.0185,0.0189,0.0186,0.0167,0.0162,0.0153,0.0138,0.0132,0.0111,0.0091,0.0077,0.0069,0.0051,0.0045,0.0016,0.0044,0.0048,0.0052,0.0056,0.002,0.0021,0.0008,0.0008,0.0007,0,0,0.0203,0.0199,0.0201,0.0193,0.0184,0.0188,0.0163,0.0162,0.0167,0.0129,0.0129,0.0106,0.0078,0.0072,0.0067,0.0057,0.0041,0.0052,0.0056,0.0058,0.002,0.0022,0.0023,0.0008,0.0008,0.0008,0,0,0.0224,0.0217,0.023,0.0224,0.0218,0.0208,0.0211,0.0193,0.0186,0.0182,0.0158,0.0139,0.0117,0.0097,0.0086,0.01,0.0064,0.0095,0.0124,0.0089,0.009,0.009,0.0058,0.0055,0.0096,0.0096,0.0096,0,0.0234,0.0248,0.0231,0.0241,0.0244,0.0221,0.0236,0.0227,0.0208,0.0207,0.0191,0.0156,0.0128,0.0122,0.0125,0.0109,0.0085,0.011,0.0095,0.0095,0.0094,0.0061,0.0057,0.0099,0.0099,0.0098,0.0098,0,0.0261,0.0275,0.0282,0.029,0.0289,0.0298,0.0286,0.0284,0.0273,0.026,0.0249,0.0209,0.0189,0.0174,0.0153,0.0141,0.0124,0.0105,0.0085,0.0099,0.0063,0.0058,0.0103,0.0102,0.0101,0.01,0,0,0.0281,0.0299,0.0303,0.0322,0.0318,0.0325,0.0333,0.0335,0.0349,0.0318,0.0324,0.0285,0.026,0.0244,0.0211,0.0177,0.0146,0.0144,0.0141,0.0117,0.0073,0.0059,0.0052,0.0127,0.0127,0.0126,0.005,0,0.031,0.0348,0.0345,0.0384,0.0404,0.039,0.0404,0.0403,0.0389,0.0387,0.0342,0.0335,0.0289,0.0282,0.024,0.0174,0.0135,0.0169,0.0058,0.0055,0.0046,0.0047,0.0124,0.0046,0.0044,0.0044,0.0043,0,0.034,0.0364,0.0407,0.0445,0.0453,0.0471,0.0492,0.0505,0.049,0.048,0.0454,0.0415,0.0369,0.0324,0.0216,0.0241,0.0163,0.0102,0.0098,0.0063,0.0032,0.0027,0.0033,0.0034,0.0035,0.0035,0.0036,0,0.037,0.0412,0.0452,0.0461,0.0493,0.0514,0.0534,0.0534,0.0559,0.054,0.0546,0.048,0.0457,0.035,0.0224,0.022,0.0096,0.0072,-0.0015,-0.0017,-0.0006,-0.0006,-0.0011,-0.0011,-0.0011,-0.0011,-0.0011,0,0.04,0.0436,0.0474,0.0495,0.0557,0.0562,0.0621,0.0624,0.064,0.0676,0.0603,0.0603,0.0462,0.0373,0.0246,0.0105,0.0111,-0.001,-0.0037,0.0019,0.0023,-0.001,-0.0009,-0.0014,-0.0013,-0.0013,-0.0012,0,0.0424,0.0445,0.0502,0.0551,0.0573,0.062,0.0691,0.0732,0.0734,0.0774,0.0774,0.0699,0.0581,0.0427,0.0253,0.0146,0.0002,-0.0052,0.0026,0.0004,-0.0095,-0.009,-0.0156,-0.0157,-0.0158,-0.0159,-0.016,0,0.0438,0.0469,0.0546,0.0589,0.0615,0.0688,0.0742,0.0779,0.0824,0.0833,0.0853,0.0756,0.0683,0.0439,0.0262,0.002,-0.002,-0.0095,-0.0106,-0.0089,-0.011,-0.0103,-0.0097,-0.0161,-0.0161,-0.0162,-0.0162,0,0.0467,0.0497,0.0543,0.0632,0.07,0.0785,0.0861,0.09,0.0944,0.0946,0.0922,0.0789,0.0654,0.0449,0.0261,0.0084,-0.0047,-0.0106,-0.0105,-0.0116,-0.0096,-0.0114,-0.0107,-0.0165,-0.0165,-0.0164,-0.0164,0,0.0491,0.053,0.0593,0.0672,0.0766,0.0853,0.0892,0.0945,0.0989,0.0993,0.0984,0.0829,0.0745,0.0482,0.0309,0.0133,0.0078,0.0016,0.0009,0.001,0.0073,0.0124,0.0101,0,0,0,0,0,0.0511,0.0553,0.0627,0.0717,0.0813,0.0869,0.096,0.0992,0.1031,0.1026,0.1008,0.0879,0.0622,0.0512,0.0334,0.0268,0.0034,0.0051,-0.0044,-0.0183,-0.0179,-0.0136,0,0,0,0,0,0,0.0522,0.0589,0.0625,0.0743,0.081,0.0921,0.0984,0.1009,0.1006,0.1012,0.0883,0.0825,0.0577,0.0725,0.0328,0.0275,0.0187,-0.0065,-0.007,-0.0185,-0.0182,-0.0179,-0.0133,0,0,0,0,0]}]]